loading
|
Showing default

OV2-5, 3428

Orbit data source: Space-Track

OV2-5, 3428 is a payload satellite owned by SAMSO (US) that was launched on Thu, 26 Sep 1968 UTC via a TITAN IIIC launch vehicle from the Air Force Eastern Test Range (AFETR). Payloads include a variety of satellites, spacecraft, and rockets equipped with specific instruments for various scientific and technological missions. These include communications satellites like Starlink; space stations such as the ISS; scientific satellites like the Hubble; Earth observation satellites from companies like Planet Labs, Umbra, and HawkEye 360; GPS; miniature CubeSats for education and research; and military/defense satellites.

Next visibility unknown
Next conjunction unknown
Loading greatness...
OV2-5 details
Identifier
3428, 1968-081A
Orbit
Active
Last TLE update20 hours ago
Origin
Flag of USSAMSO (US)
ManufacturerNorthrop
MissionNon-operational Civil Science
Bus & MotorOV2, Unknown motor
Mass~200 kg wet, ~200 kg dry
Launch date (UTC)
1968-09-26 (56 years ago)
Launch vehicle
TITAN IIIC
Launch site
Air Force Eastern Test Range (AFETR)
Object type
Payload
Rocket body
Debris
Shape & HBRBox + 4 Pan, 2.5 m
Radar Cross Section1.167 m², Medium (>0.1 m² and < 1m²)

Expand to show TLE details & history

TLE from 20 hours ago
0 OV2-5
1 03428U 68081A   24285.19196352  .00000092  00000-0  00000-0 0  9998
2 03428   1.0741  10.0719 0080084 311.5953 137.5727  1.01556681114828
Epoch: 2024-10-11T04:36Z
Definitive object data (Epoch: 2024-10-11T04:36:25.648Z)
Latitude1.05829°
Longitude10.45469°
Altitude35,676.559 km
Speed3.07 km/s
True Right ascension06h 39m 18s
True Declination1° 03' 26"
Sunlit
Object was in daylight at TLE epoch
Predictive object data (real-time)
Latitude0.70103°
Longitude-38.06653°
Altitude35,423.198 km
Speed3.088 km/s
Apparent Right ascension03h 47m 10s
Apparent Declination-4° 34' 49"
Sunlit
Object is in daylight
Predictive observer data (real-time)
Local Sidereal Time19:25:59
Azimuth69.245° E
Elevation-29.537°
Doppler factor1
Orbital elements
Apogee35,766.1 km
Perigee35,096.447 km
Semi-major axis41,809.411 km
Eccentricity0.0080084
Inclination1.0741°
RAAN10.0719°
Arg. of periapsis311.5953°
True anomaly138.18727°
Mean anomaly137.5727°
Eccentric anomaly137.88044°
Mean motion0.25388 °/min
BSTARUnknown
Period1417.98 mins
No data available

OV2-5 Visibility forecast

Observer location: 39.9160978°, -105.1181434

OV2-5 is not visible in the next 10 days
Span
Click to sort rows by Start time (UTC) header in descending order
Start Az.
Max El. time (UTC)
Max El. Az.
Max El.
End time (UTC)
End Az.